Daviess Cnty AP, Washington,, IN

12:47 AM EST on November 14, 2019 (GMT -0500)
Daviess County

Weather History for KDCY - July, 2019

Change the Weather History Date:

Wednesday, July 10, 2019

  Actual Average (WUND) Record (WUND)
Temperature  
Mean Temperature 82 °F -  
Max Temperature 93 °F - - (-1)
Min Temperature 70 °F - - (-1)
Cooling Degree Days 16    
Growing Degree Days 32 (Base 50)    
Moisture  
Dew Point 73 °F    
Average Humidity 78    
Maximum Humidity 99    
Minimum Humidity 54    
Precipitation  
Precipitation 0.00 in - - ()
Sea Level Pressure  
Sea Level Pressure 29.97 in    
Wind  
Wind Speed 2 mph (SSW)    
Max Wind Speed 13 mph    
Max Gust Speed 25 mph    
Visibility 10 miles    
Events Thunderstorm    
Averages and records for this station are not official NWS values.
T = Trace of Precipitation, MM = Missing Value Source: NWS Daily Summary

Daily Weather History Graph

Daily Weather History Graph

Search for Another Location

Airport or City:

Astronomy

Jul. 10, 2019 Rise Set
Actual Time 6:32 AM EDT 9:15 PM EDT
Civil Twilight 6:01 AM EDT 9:46 PM EDT
Nautical Twilight 5:21 AM EDT 10:25 PM EDT
Astronomical Twilight 4:37 AM EDT 11:09 PM EDT
Moon 3:23 PM EDT (7/10) 2:08 AM EDT (7/10)
Length of Visible Light 15h 45m
Length of Day
14h 42m
Waxing Gibbous, 63% of the Moon is Illuminated
Jul 10
Waxing Gibbous
Jul 16
Full
Jul 24
Last Quarter
Jul 31
New
Aug 7
First Quarter

Hourly Weather History & Observations

Time (EDT) Temp. Heat Index Dew Point Humidity Pressure Visibility Wind Dir Wind Speed Gust Speed Precip Events Conditions
12:15 AM 74.3 °F - 74.1 °F 99% 29.98 in 10.0 mi Calm Calm - N/A   Clear
12:35 AM 74.3 °F - 73.8 °F 98% 29.99 in 10.0 mi Calm Calm - N/A   Clear
12:55 AM 74.3 °F - 73.6 °F 98% 29.99 in 10.0 mi Calm Calm - N/A   Clear
1:15 AM 73.8 °F - 73.6 °F 99% 29.99 in 10.0 mi Calm Calm - N/A   Clear
1:35 AM 73.4 °F - 73.0 °F 99% 29.99 in 10.0 mi Calm Calm - N/A   Clear
1:55 AM 73.0 °F - 72.7 °F 99% 29.99 in 10.0 mi Calm Calm - N/A   Clear
2:15 AM 72.5 °F - 72.0 °F 98% 29.99 in 10.0 mi Calm Calm - N/A   Clear
2:35 AM 72.3 °F - 72.0 °F 99% 29.99 in 10.0 mi South 4.6 mph - N/A   Clear
2:55 AM 72.5 °F - 72.3 °F 99% 29.99 in 10.0 mi Calm Calm - N/A   Clear
3:15 AM 73.6 °F - 73.4 °F 99% 29.98 in 10.0 mi Calm Calm - N/A   Clear
3:35 AM 72.9 °F - 72.7 °F 99% 29.98 in 10.0 mi Calm Calm - N/A   Scattered Clouds
3:55 AM 72.5 °F - 72.1 °F 99% 29.98 in 10.0 mi Calm Calm - N/A   Scattered Clouds
4:15 AM 72.0 °F - 71.8 °F 99% 29.98 in 10.0 mi Calm Calm - N/A   Clear
4:35 AM 71.6 °F - 71.2 °F 99% 29.97 in 10.0 mi Calm Calm - N/A   Clear
4:55 AM 71.8 °F - 71.6 °F 99% 29.98 in 10.0 mi Calm Calm - N/A   Clear
5:15 AM 71.6 °F - 71.4 °F 99% 29.98 in 10.0 mi Calm Calm - N/A   Clear
5:35 AM 70.9 °F - 70.7 °F 99% 29.98 in 10.0 mi Calm Calm - N/A   Clear
5:55 AM 70.7 °F - 70.3 °F 99% 29.98 in 7.0 mi Calm Calm - N/A   Clear
6:15 AM 70.7 °F - 70.3 °F 99% 29.98 in 7.0 mi Calm Calm - N/A   Clear
6:35 AM 71.6 °F - 71.1 °F 98% 29.99 in 5.0 mi Calm Calm - N/A   Clear
6:55 AM 72.1 °F - 71.8 °F 99% 29.99 in 5.0 mi Calm Calm - N/A   Clear
7:15 AM 72.9 °F - 72.5 °F 99% 29.99 in 5.0 mi Calm Calm - N/A   Scattered Clouds
7:35 AM 73.9 °F - 73.6 °F 99% 30.00 in 5.0 mi Calm Calm - N/A   Scattered Clouds
7:55 AM 74.5 °F - 74.3 °F 99% 30.00 in 7.0 mi SSE 3.5 mph - N/A   Mostly Cloudy
8:15 AM 75.7 °F - 75.4 °F 99% 30.00 in 7.0 mi Calm Calm - N/A   Scattered Clouds
8:35 AM 77.2 °F - 75.0 °F 93% 30.00 in 10.0 mi South 4.6 mph - N/A   Clear
8:55 AM 79.2 °F - 75.2 °F 88% 30.00 in 10.0 mi SE 4.6 mph - N/A   Clear
9:15 AM 80.6 °F 85.2 °F 73.2 °F 78% 30.00 in 10.0 mi SSE 3.5 mph - N/A   Clear
9:35 AM 81.9 °F 86.6 °F 72.0 °F 72% 30.01 in 10.0 mi South 4.6 mph - N/A   Scattered Clouds
9:55 AM 83.3 °F 88.7 °F 72.1 °F 69% 30.01 in 10.0 mi South 4.6 mph - N/A   Scattered Clouds
10:15 AM 84.2 °F 90.3 °F 72.5 °F 68% 30.01 in 10.0 mi South 5.8 mph - N/A   Clear
10:35 AM 84.7 °F 91.0 °F 72.9 °F 67% 30.01 in 10.0 mi South 4.6 mph - N/A   Clear
10:55 AM 86.2 °F 93.4 °F 73.2 °F 65% 30.00 in 10.0 mi SSW 9.2 mph - N/A   Clear
11:15 AM 87.1 °F 94.1 °F 72.9 °F 62% 30.00 in 10.0 mi SSW 6.9 mph - N/A   Clear
11:35 AM 88.3 °F 95.9 °F 72.9 °F 60% 30.01 in 10.0 mi SW 8.1 mph - N/A   Clear
11:55 AM 88.2 °F 95.5 °F 72.9 °F 60% 30.01 in 10.0 mi SW 5.8 mph - N/A   Clear
12:15 PM 89.4 °F 97.8 °F 73.4 °F 59% 30.01 in 10.0 mi West 5.8 mph - N/A   Clear
12:35 PM 89.1 °F 97.5 °F 73.6 °F 60% 30.00 in 10.0 mi SW 3.5 mph - N/A   Clear
12:55 PM 89.8 °F 98.1 °F 73.0 °F 58% 30.00 in 10.0 mi Calm Calm - N/A   Clear
1:15 PM 89.6 °F 97.7 °F 73.2 °F 58% 30.00 in 10.0 mi West 3.5 mph - N/A   Mostly Cloudy
1:35 PM 89.4 °F 97.8 °F 73.6 °F 59% 29.99 in 10.0 mi West 4.6 mph - N/A   Mostly Cloudy
1:55 PM 90.0 °F 99.0 °F 73.8 °F 59% 29.98 in 10.0 mi West 3.5 mph - N/A   Mostly Cloudy
2:15 PM 90.3 °F 98.7 °F 73.2 °F 57% 29.97 in 10.0 mi Calm Calm - N/A   Scattered Clouds
2:30 PM 91.0 °F 99.8 °F 73.4 °F 56% 29.97 in 10.0 mi Calm Calm - N/A   Clear
2:55 PM 91.4 °F 100.7 °F 73.9 °F 56% 29.95 in 10.0 mi SSE 3.5 mph - N/A   Clear
3:15 PM 91.8 °F 101.5 °F 74.3 °F 56% 29.94 in 10.0 mi SSE 4.6 mph - N/A   Clear
3:35 PM 91.8 °F 100.3 °F 73.2 °F 54% 29.94 in 10.0 mi Calm Calm - N/A   Clear
3:55 PM 91.2 °F 101.4 °F 74.7 °F 58% 29.94 in 10.0 mi South 5.8 mph - N/A   Scattered Clouds
4:15 PM 91.4 °F 102.5 °F 75.4 °F 59% 29.94 in 10.0 mi South 4.6 mph - N/A   Mostly Cloudy
4:35 PM 90.7 °F 100.1 °F 74.3 °F 58% 29.92 in 10.0 mi South 4.6 mph - N/A   Mostly Cloudy
4:55 PM 92.3 °F 102.2 °F 74.1 °F 55% 29.92 in 10.0 mi Calm Calm - N/A   Mostly Cloudy
5:15 PM 93.4 °F 104.8 °F 74.8 °F 55% 29.92 in 10.0 mi SW 4.6 mph - N/A   Scattered Clouds
5:35 PM 93.2 °F 104.3 °F 74.7 °F 55% 29.92 in 10.0 mi SSW 6.9 mph - N/A   Mostly Cloudy
5:55 PM 92.3 °F 103.4 °F 75.0 °F 57% 29.92 in 10.0 mi South 5.8 mph - N/A   Scattered Clouds
6:15 PM 92.3 °F 104.1 °F 75.7 °F 58% 29.92 in 10.0 mi South 5.8 mph - N/A   Clear
6:35 PM 89.6 °F 96.2 °F 71.2 °F 55% 29.91 in 10.0 mi SSW 12.7 mph 25.3 mph N/A   Clear
6:55 PM - - - N/A% 29.91 in 10.0 mi SSW 5.8 mph - N/A   Clear
7:15 PM 86.7 °F 95.9 °F 75.0 °F 68% 29.91 in 10.0 mi SSW 3.5 mph - N/A   Clear
7:35 PM - - - N/A% 29.90 in 10.0 mi South 3.5 mph - N/A   Clear
7:55 PM - - - N/A% 29.90 in 10.0 mi South 5.8 mph - N/A   Clear
8:15 PM - - - N/A% 29.91 in 10.0 mi SSW 5.8 mph - N/A   Scattered Clouds
8:35 PM - - - N/A% 29.92 in 10.0 mi SSW 6.9 mph - N/A   Scattered Clouds
8:55 PM - - - N/A% 29.92 in 10.0 mi SSW 6.9 mph - N/A   Scattered Clouds
9:15 PM - - - N/A% 29.93 in 10.0 mi SSW 8.1 mph - N/A   Scattered Clouds
9:35 PM - - - N/A% 29.93 in 10.0 mi SSW 9.2 mph - N/A   Clear
9:55 PM - - - N/A% 29.93 in 10.0 mi SW 8.1 mph - N/A   Clear
10:15 PM - - - N/A% 29.92 in 10.0 mi SW 6.9 mph - N/A Thunderstorm Clear
10:35 PM - - - N/A% 29.91 in 10.0 mi SW 6.9 mph - N/A   Clear
10:55 PM - - - N/A% 29.93 in 10.0 mi ENE 9.2 mph - N/A   Scattered Clouds
11:15 PM - - - N/A% 29.94 in 10.0 mi North 6.9 mph - N/A   Overcast
11:35 PM 78.4 °F - 68.9 °F 72% 29.94 in 10.0 mi NNE 6.9 mph - N/A   Mostly Cloudy
11:55 PM 77.4 °F - 69.8 °F 77% 29.93 in 10.0 mi Calm Calm - N/A   Scattered Clouds